SCP
0 0 0 0 0 0 0 0 0 0 0 0 0 0 0 0 0 0 0 0 0 0 0 0 0 0 0 0 0 0 0 0 0 0 0 0 0 0 -0 -0 -0 0 0 0 0 0 0 0 -0 -0 0 0 0 -0
0 0 0 0 0 0 0 0 0 0 0 0 0 0 0 0 0 0 0 0 0 0 0 0 0 0 0 0 0 0 0 0 0 0 0 0 0 -0 0 0 0 0 0 0 0 0 0 0 0 0 0 -0 -0 -0
0 0 0 0 0 0 0 0 0 0 0 0 0 0 0 0 0 0 0 0 0 0 0 0 0 0 0 0 0 0 0 0 0 0 0 0 0 -0 -0 -0 -0 -0 -0 -0 0 0 0 0 0 0 0 0 0 0
0 0 0 0 0 0 0 0 0 0 0 0 0 0 0 0 0 0 0 0 0 0 0 0 0 0 0 0 0 0 0 0 -0 -0 0 0 0 -0 -0 0 -0 0 0 0 0 0 0 0 0 0 0 0 0 0
0 0 0 0 0 0 0 0 0 0 0 0 0 0 0 0 0 0 0 0 0 0 0 0 -0 0 -0 0 0 0 0 0 0 0 0 0 0 0 -0 -0 0 0 0 0 0 0 0 0 0 -0 0 0 0 0
0 0 0 0 0 0 0 0 0 0 0 0 0 0 0 0 0 0 0 0 0 0 0 0 0 0 0 0 0 0 0 0 0 0 0 0 -0 0 0 0 0 0 0 0 0 0 0 0 0 0 0 0 0 0
0 0 0 0 0 0 0 0 0 0 0 0 0 0 0 0 0 0 0 0 0 0 0 0 0 0 0 0 0 0 0 0 0 0 0 -0 -0 0 0 0 -0 0 -0 0 0 0 0 0 0 0 0 0 0 0
0 0 0 0 0 0 0 0 0 0 0 0 0 0 0 0 0 0 0 0 0 0 0 0 0 0 0 0 0 0 0 0 0 0 0 -0 0 0 -0 0 0 0 0 0 0 0 0 0 0 0 0 0 0 -0
0 0 0 0 0 0 0 0 0 0 0 0 0 0 0 0 0 0 0 0 0 0 0 0 0 0 -0 -0 0 0 0 0 0 0 -0 0 0 -0 -0 -0 -0 -0 0 0 0 0 0 0 0 0 0 0 0 -0
0 0 0 0 0 0 0 0 0 0 0 0 0 0 0 0 0 0 0 0 0 0 0 0 -0 -0 -0 0 0 -0 -0 -0 -0 0 0 0 -0 -0 -0 0 0 0 0 0 0 -0 -0 0 0 0 0 0 0 -0
0 0 0 0 0 0 0 0 0 0 0 0 0 0 0 0 0 0 0 0 0 0 0 0 -0 0 0 0 0 -0 -0 0 -0 -0 -0 -0 0 0 -0 -0 -0 0 0 0 0 0 0 0 0 0 0 0 0 0
0 0 0 0 0 0 0 0 0 0 0 0 0 0 0 0 0 0 0 0 0 0 0 -0 0 -0 0 -0 -0 -0 0 -0 -0 0 0 0 0 0 -0 -0 -0 0 0 0 -0 0 0 0 0 0 0 0 0 0
0 0 0 0 0 0 0 0 0 0 0 0 0 0 0 0 0 0 0 0 0 -0 0 0 -0 0 -0 -0 -0 -0 0 -0 -0 -0 0 0 0 0 0 0 -0 -0 0 0 -0 0 0 0 0 0 0 0 0 -0
0 -0 0 0 0 0 -0 0 -0 0 0 0 0 0 0 0 0 0 0 0 0 -0 0 0 -0 -0 0 -0 -0 -0 -0 0 -0 -0 0 0 0 0 0 0 -0 -0 -0 -0 0 -0 -0 0 0 0 0 0 0 -0
0 0 0 0 0 -0 -0 -0 0 0 0 0 0 0 0 0 0 0 0 0 0 0 0 0 0 0 -0 0 -0 -0 -0 -0 -0 -0 -0 -0 -0 0 0 0 -0 -0 -0 -0 -0 0 0 0 -0 0 0 0 0 -0
0 0 0 0 -0 -0 -0 0 0 0 0 0 0 0 0 0 0 0 0 0 0 0 0 0 0 0 -0 -0 0 0 0 0 -0 -0 -0 -0 -0 0 0 0 -0 -0 -0 -0 -0 -0 0 0 0 -0 -0 0 0 0
0 0 0 -0 -0 -0 -0 0 0 0 0 0 0 0 0 -0 -0 -0 0 0 0 0 -0 0 0 0 0 -0 -0 0 0 -0 -0 -0 0 0 -0 -0 0 0 -0 0 -0 -0 -0 -0 0 0 0 0 -0 -0 0 -0
0 0 -0 -0 -0 0 0 0 0 0 0 0 0 0 0 0 -0 -0 0 0 0 0 0 0 0 0 0 0 -0 -0 0 0 0 0 0 0 -0 -0 -0 -0 -0 0 0 -0 -0 -0 -0 -0 -0 0 0 -0 0 -0
0 -0 -0 -0 0 0 0 0 0 0 -0 0 0 0 -0 0 0 0 0 0 0 0 0 0 0 0 0 0 0 -0 0 0 0 0 0 -0 -0 -0 -0 0 0 -0 -0 -0 -0 -0 -0 -0 -0 -0 0 0 -0 0
-0 -0 -0 0 0 0 0 0 0 0 0 0 0 0 -0 0 -0 0 0 0 0 0 0 0 0 0 0 0 0 0 0 0 0 0 0 0 0 -0 -0 -0 -0 0 -0 -0 -0 -0 -0 -0 -0 0 -0 -0 -0 0
0 0 0 0 0 0 0 0 0 0 0 0 -0 -0 0 0 -0 -0 0 0 0 0 0 0 0 0 0 0 0 0 0 0 0 0 0 0 0 0 0 0 -0 -0 0 -0 -0 -0 -0 -0 0 -0 -0 -0 0 0
0 0 0 0 0 0 0 0 0 0 0 0 0 -0 0 0 -0 -0 -0 0 0 0 0 0 0 0 0 0 0 0 0 0 0 0 0 0 0 0 0 0 0 0 0 0 0 -0 0 0 -0 -0 -0 0 0 0
0 0 0 0 0 0 0 0 0 0 0 0 0 0 0 0 0 -0 -0 -0 0 0 0 0 0 0 0 0 0 0 0 0 0 0 0 0 0 0 0 0 0 0 0 0 0 0 0 0 0 0 -0 -0 0 0
0 0 0 0 0 0 0 0 0 0 0 0 0 0 0 0 0 0 0 -0 -0 0 0 0 0 0 0 0 0 0 0 0 0 0 0 0 0 0 0 0 0 0 0 0 0 0 0 0 0 0 0 0 -0 0
0 0 0 0 0 0 0 0 0 0 0 0 0 0 0 0 0 0 0 0 0 0 0 0 0 0 0 0 0 0 0 0 0 0 0 0 0 0 0 0 0 0 0 0 0 0 0 0 0 0 0 0 0 -0
0 0 -0 -0 0 0 0 0 0 0 0 0 0 0 0 0 0 0 0 0 0 0 0 0 0 0 0 0 0 0 0 0 0 0 0 0 0 0 0 0 0 0 0 0 0 0 0 0 0 0 0 0 0 0
0 -0 -0 0 0 0 0 0 0 0 0 0 0 0 0 0 0 0 0 0 0 0 0 0 0 0 0 0 0 0 0 0 0 0 0 0 0 0 0 0 0 0 -0 0 0 0 0 0 0 0 0 0 0 0
0 0 0 -0 0 0 0 0 0 0 0 0 0 0 0 0 0 0 0 0 0 0 0 0 0 0 0 0 0 0 0 0 0 0 0 0 0 0 0 0 0 -0 -0 0 -0 0 0 0 0 0 0 0 0 0
0 0 0 0 0 0 0 0 0 0 0 0 0 0 0 0 0 0 0 0 0 0 0 0 0 0 0 0 0 0 0 0 0 0 0 0 0 0 0 0 0 0 0 0 -0 -0 0 0 -0 0 0 0 0 0
0 0 0 0 0 0 0 0 0 0 0 0 0 0 0 0 0 0 0 0 0 0 0 0 0 0 0 0 0 0 0 0 0 0 0 0 0 0 0 0 0 0 0 0 0 0 -0 -0 0 0 0 0 0 0
0 0 0 0 0 0 0 0 0 0 0 0 0 0 0 0 0 0 0 0 0 0 0 0 0 0 0 0 0 0 0 0 0 0 0 0 0 0 0 0 0 0 0 0 0 0 0 0 0 0 0 0 0 0
0 0 0 0 0 0 0 0 0 0 0 0 0 0 0 0 0 0 0 0 0 0 0 0 0 0 0 0 0 0 0 0 0 0 0 0 0 0 0 0 0 0 0 0 0 0 0 0 0 0 0 0 0 0
0 0 0 0 0 0 0 0 0 0 0 0 0 0 0 0 0 0 0 0 0 0 0 0 0 0 0 0 0 0 0 0 0 0 0 0 0 0 0 0 0 0 0 0 0 0 0 0 0 0 0 0 0 0
Wind_Speed_500mb
48 43 43 43 40 40 40 40 43 46 46 47 47 39 31 33 32 27 21 25 26 15 42 46 35 26 28 32 18 33 20 14 16 6 7 7 10 9 12 15 12 4 6 4 5 8 11 20 14 15 26 51 59 59
47 45 47 47 45 44 44 42 40 40 38 40 44 40 32 24 30 28 30 26 22 28 30 44 52 52 48 55 36 23 21 18 11 8 8 10 16 11 18 9 14 7 2 5 9 12 35 47 43 44 58 59 60 67
47 47 47 47 44 43 42 38 37 38 39 35 41 40 34 20 27 30 33 28 22 31 45 30 21 20 18 19 27 20 3 8 8 15 15 7 9 9 10 10 13 19 21 12 17 15 38 59 52 62 62 71 77 76
50 48 45 41 41 41 41 39 39 42 40 34 36 39 34 19 25 31 38 30 22 13 11 9 7 17 19 20 24 27 27 17 14 19 9 7 8 17 13 17 20 10 22 21 30 24 64 27 51 65 71 74 81 60
50 49 46 40 39 39 40 41 41 41 40 33 33 37 30 20 22 29 38 38 30 15 9 25 44 30 38 26 21 21 19 14 8 6 6 7 18 13 16 17 4 14 11 5 7 42 31 54 77 77 80 77 71 82
51 46 42 42 47 43 39 40 39 41 35 30 32 33 21 16 22 28 12 9 16 32 8 8 16 17 23 35 23 25 20 14 7 6 9 13 23 6 8 6 9 23 23 25 16 47 53 61 73 64 75 80 72 71
52 50 49 46 43 39 41 40 38 36 30 26 27 24 20 25 29 31 9 5 11 27 6 11 10 9 30 31 30 23 21 10 10 7 11 18 12 5 3 8 24 33 34 38 34 36 48 51 75 78 71 83 71 71
50 48 44 44 43 45 42 40 35 33 26 24 21 18 17 24 30 39 37 33 20 16 8 6 9 15 25 33 25 16 18 22 16 9 9 9 3 12 8 6 23 31 40 30 38 44 52 64 70 76 80 78 71 66
51 48 46 47 52 48 43 35 33 29 26 25 18 18 18 25 14 19 11 11 22 15 6 7 6 4 17 28 21 33 22 9 11 7 7 5 6 7 10 20 26 29 28 43 53 55 51 60 74 66 75 76 69 66
46 47 50 46 44 39 35 36 29 26 30 31 28 15 9 9 12 13 14 20 14 11 13 10 28 14 14 17 5 5 11 7 6 8 6 6 4 3 9 12 17 26 32 46 47 48 65 69 64 73 80 78 68 70
44 44 43 42 44 36 32 30 31 38 45 33 17 10 14 17 11 9 9 11 14 8 14 16 37 20 14 11 3 9 1 5 4 5 5 6 4 3 14 16 23 24 33 40 41 45 54 68 62 70 80 74 76 66
43 38 40 42 37 33 33 36 46 60 39 37 21 17 17 11 9 7 8 11 10 8 17 21 16 18 3 2 2 7 4 4 6 18 6 3 3 11 19 22 27 31 34 46 49 48 53 66 63 61 73 75 75 63
38 41 37 39 35 30 35 39 61 55 39 34 9 10 10 11 11 11 13 8 8 13 16 18 9 10 8 8 7 5 7 5 7 7 4 5 12 19 23 27 32 35 40 48 57 45 52 64 71 59 66 81 76 67
40 36 36 32 29 34 38 59 64 45 37 9 13 10 10 11 11 12 13 6 14 13 18 16 12 8 6 5 4 5 6 7 5 4 6 9 17 21 24 29 34 41 43 51 59 47 48 61 74 55 66 82 79 68
37 34 34 30 31 34 52 64 54 54 10 11 10 9 15 21 15 11 22 22 13 6 9 4 8 7 4 2 2 5 5 4 4 6 5 13 17 22 26 30 34 42 43 50 54 48 52 64 63 60 57 83 76 66
24 27 32 28 34 52 67 65 45 30 7 6 10 9 11 9 14 17 26 25 13 13 6 9 7 6 5 6 5 5 4 3 3 3 9 11 18 22 26 28 31 36 38 47 47 45 49 57 64 60 53 81 83 76
30 35 32 36 62 72 70 50 29 10 10 9 14 25 19 10 15 23 23 14 17 13 12 7 5 5 4 5 7 4 4 2 9 8 13 13 16 22 25 26 30 32 38 42 44 41 42 49 61 56 49 68 76 79
41 35 46 71 83 75 57 17 10 13 12 21 12 17 24 22 21 21 14 13 10 18 14 2 4 7 6 2 4 7 10 5 2 7 9 12 18 20 22 23 27 28 41 49 44 40 37 47 53 52 50 55 62 77
48 51 64 76 80 41 13 16 10 7 21 12 27 13 27 27 13 11 13 11 11 10 2 4 3 4 3 0 5 13 9 4 6 5 8 10 14 18 21 22 22 28 32 41 47 45 41 40 43 53 56 48 55 75
45 59 76 78 63 11 9 9 14 8 7 13 19 25 32 28 21 13 9 9 13 8 7 5 3 8 4 17 8 7 7 2 4 3 11 12 12 12 15 20 27 27 30 32 33 42 49 44 39 54 62 40 55 71
94 86 85 71 25 9 8 10 12 11 8 10 21 28 23 23 21 18 17 17 14 10 5 6 6 14 13 14 12 8 8 9 11 11 8 14 18 19 19 22 26 29 30 32 37 38 50 47 44 54 62 36 49 63
61 68 51 41 5 6 5 11 8 6 7 8 21 23 14 21 20 20 17 13 16 10 3 9 15 17 16 13 11 11 11 10 9 11 11 8 17 20 22 24 25 30 30 34 38 36 43 48 44 46 57 43 44 53
68 50 17 7 5 9 7 12 7 7 6 7 18 9 11 17 14 20 9 18 12 10 13 15 19 18 19 17 15 14 11 8 9 10 11 12 13 17 20 23 25 29 32 33 36 38 41 50 43 41 47 48 45 45
47 13 9 13 12 8 9 9 7 8 7 7 10 8 12 9 19 11 9 15 21 20 21 23 26 24 19 18 15 13 9 7 5 8 11 12 13 15 17 20 21 26 30 30 35 37 39 45 51 42 38 39 49 43
10 9 8 6 10 10 10 9 8 8 8 13 11 8 7 12 7 7 12 14 25 27 28 26 26 23 21 19 16 9 6 5 4 7 9 11 11 11 14 16 19 26 29 32 36 37 40 42 45 49 34 37 48 36
7 11 12 15 9 10 10 9 12 15 9 12 10 9 8 7 8 7 8 17 27 30 32 28 26 23 22 21 16 12 7 3 3 6 7 9 10 12 14 16 19 23 28 29 32 35 39 40 41 44 42 27 38 44
6 9 12 14 11 11 7 9 11 8 9 11 8 10 7 7 11 2 7 15 20 23 24 25 23 20 16 22 19 11 6 4 8 8 7 8 10 13 15 17 19 24 20 26 30 31 35 39 38 39 41 30 23 30
9 10 9 16 10 11 5 6 7 11 7 7 13 11 15 6 5 5 8 6 11 19 21 18 14 17 19 18 14 11 6 3 3 8 9 9 9 13 17 15 18 28 25 25 29 27 33 33 34 33 36 38 15 19
10 11 12 11 8 6 9 8 6 8 8 9 8 5 6 7 10 10 12 16 18 23 25 23 20 19 20 19 14 8 11 12 8 11 7 12 5 12 18 17 18 19 20 22 26 29 38 32 34 29 30 32 31 7
11 12 8 12 6 9 6 7 3 2 10 16 18 25 25 17 13 13 16 19 21 22 23 24 20 20 21 19 16 11 10 10 11 10 7 1 6 11 12 15 17 18 19 22 23 23 29 28 25 24 27 27 29 11
14 14 6 10 7 8 5 9 8 7 6 10 12 22 22 23 20 14 13 14 17 22 23 19 20 19 18 17 13 13 12 9 10 12 14 9 6 11 13 15 15 17 19 21 21 22 27 26 26 26 27 28 28 19
16 16 10 8 6 9 10 7 7 6 9 22 25 25 25 19 9 8 5 5 15 18 18 20 22 19 16 17 14 15 25 18 11 5 7 5 0 4 9 10 13 16 18 17 18 20 23 27 28 28 28 27 25 20
11 14 7 8 9 12 10 9 5 6 7 5 6 10 12 8 7 4 3 6 7 9 17 14 18 21 21 22 20 17 13 7 1 0 2 3 4 3 5 9 11 15 16 15 17 20 25 30 32 32 31 30 27 21
Wind_Direction_500mb
294 293 292 293 297 300 299 295 291 286 285 284 289 295 286 285 290 294 297 263 259 250 277 276 271 262 279 276 278 322 321 13 284 314 299 331 319 338 317 312 323 179 291 255 220 247 270 25 353 6 314 326 326 317
294 286 287 288 290 292 293 295 291 289 290 282 281 290 288 267 280 286 288 309 254 245 259 277 278 275 268 249 280 293 299 305 346 324 348 330 309 306 311 297 332 12 18 271 290 310 315 358 351 340 334 320 320 317
287 293 294 292 289 290 290 291 291 293 290 281 276 282 286 259 271 277 283 301 260 273 297 270 269 307 287 255 213 256 64 351 352 343 321 305 286 330 300 311 335 323 335 305 323 328 332 337 336 336 329 319 314 312
283 284 290 286 289 290 291 288 284 284 281 276 275 275 281 251 266 271 274 292 247 271 279 291 315 266 259 221 222 229 257 289 312 311 298 273 284 299 301 304 298 350 310 340 301 314 334 318 326 321 316 313 310 307
280 278 280 278 285 289 291 290 287 288 282 269 272 272 277 255 260 271 267 279 263 226 297 293 298 257 238 216 219 227 237 252 262 278 260 260 278 305 283 269 21 16 17 331 281 311 302 297 310 314 312 313 317 316
272 280 271 278 279 286 280 282 286 285 277 264 266 270 270 232 263 257 289 321 244 205 286 293 295 281 196 213 218 214 216 214 197 230 278 274 278 336 299 294 101 8 344 328 298 300 299 299 303 310 310 326 313 316
265 268 270 274 286 292 295 289 282 277 270 255 260 262 255 229 249 228 233 253 194 210 262 284 272 271 205 202 222 219 204 187 205 205 238 252 285 333 278 286 353 343 334 323 316 323 313 315 311 319 316 324 319 315
262 264 265 270 277 285 291 288 275 271 253 243 244 246 224 247 252 240 260 279 197 191 239 269 277 256 203 216 234 194 184 183 202 229 241 262 247 212 243 307 330 338 332 326 325 320 307 307 316 322 326 326 325 325
256 258 261 267 277 285 282 284 273 264 230 217 209 184 202 214 226 257 269 205 185 215 259 244 267 303 194 229 244 193 190 197 157 209 226 182 256 225 13 343 330 339 330 314 321 324 322 323 320 325 330 335 330 328
253 256 258 273 282 284 274 270 257 224 206 186 173 172 203 214 198 166 145 182 206 221 232 248 251 262 271 289 264 266 203 190 213 205 154 229 230 100 6 339 333 331 331 331 329 327 326 323 330 336 337 334 333 339
253 257 260 270 278 272 271 262 224 197 179 170 172 182 190 155 157 193 194 194 191 228 220 242 235 255 283 283 270 274 243 236 254 146 230 241 118 354 347 349 341 349 338 336 330 326 326 329 335 334 344 343 345 345
256 259 265 270 269 265 259 233 212 194 184 174 159 156 149 182 208 228 217 182 196 241 191 226 216 220 122 264 252 286 268 249 246 156 219 208 90 353 346 341 335 342 341 337 342 336 332 333 336 338 343 350 353 355
253 256 261 261 257 256 244 227 203 195 172 151 152 156 179 176 213 221 205 200 216 216 186 178 180 189 167 218 213 240 252 237 186 204 183 79 42 353 347 343 337 338 343 336 342 342 335 337 340 344 345 358 357 358
248 251 260 252 250 246 217 204 191 180 145 142 160 183 221 186 230 215 218 228 268 245 163 181 167 204 123 199 237 254 291 284 264 254 79 67 11 344 348 345 342 340 344 340 344 344 340 339 339 342 352 352 2 1
248 243 252 246 240 213 201 188 186 170 139 168 194 219 214 237 253 218 232 254 231 199 158 187 158 141 99 298 270 316 291 253 351 6 4 355 345 349 348 345 343 339 344 342 347 344 344 342 343 352 354 356 4 6
236 243 235 227 204 193 179 176 174 162 155 196 226 248 231 237 239 254 237 231 167 210 191 251 187 162 156 165 221 238 250 250 68 307 344 355 355 346 345 344 340 340 344 342 347 344 344 346 343 352 354 357 4 10
223 215 213 191 185 176 176 168 158 171 201 225 232 228 236 221 209 216 211 214 169 216 219 218 219 136 170 215 178 150 239 320 260 321 42 17 349 346 345 343 345 346 346 350 350 351 348 352 355 353 0 1 1 8
207 206 183 179 174 170 167 150 151 187 231 231 248 216 207 235 255 229 186 145 182 224 234 251 112 207 188 282 122 171 194 198 207 24 30 9 351 349 350 343 345 347 347 359 3 357 354 355 347 347 357 360 0 6
206 185 181 183 177 145 138 175 178 234 228 247 221 218 200 230 240 222 175 149 237 326 28 205 245 289 128 283 83 117 155 60 14 46 82 21 3 360 355 348 349 350 350 350 3 4 357 353 345 354 359 4 7 6
177 176 179 178 167 120 131 156 185 259 238 224 219 217 217 219 209 176 170 189 199 192 203 224 283 145 114 100 94 72 71 319 336 28 43 9 2 350 6 7 357 352 350 354 358 2 10 3 2 4 354 3 12 9
163 161 171 171 139 116 155 166 199 233 230 213 205 203 211 207 193 184 180 188 199 221 189 190 154 95 95 111 113 100 88 66 79 54 34 21 15 18 18 17 10 7 5 1 359 358 6 5 355 8 357 16 13 10
150 163 158 158 100 147 189 206 228 231 232 253 194 193 198 201 200 195 163 191 221 190 194 162 137 148 145 131 117 103 113 94 87 66 30 21 22 20 17 16 13 13 9 4 6 1 359 8 359 6 3 17 13 10
159 162 132 122 151 196 246 197 210 214 233 211 184 206 208 200 194 165 184 207 201 185 181 155 150 154 142 138 124 114 112 87 87 60 40 30 29 21 19 20 20 17 9 3 6 5 359 10 12 9 11 16 19 15
153 122 162 183 199 199 177 194 217 224 226 209 195 212 191 142 169 215 230 192 158 164 166 154 157 150 150 153 150 129 110 92 100 77 35 23 22 24 21 21 20 19 16 5 4 6 5 5 10 14 13 14 15 20
129 175 180 196 204 184 196 180 199 213 214 200 202 187 147 162 179 233 230 165 158 171 167 174 175 170 167 169 151 151 126 87 102 72 39 27 23 23 25 25 27 20 16 8 9 6 7 9 6 9 15 13 11 22
183 184 194 196 189 198 200 175 201 202 198 194 207 147 140 164 202 229 219 185 171 176 169 180 184 180 182 168 165 155 132 113 122 113 64 43 42 36 25 19 9 359 12 7 6 7 4 5 9 5 4 14 24 22
192 200 202 211 202 217 199 182 175 194 206 205 172 162 147 167 205 126 100 106 154 163 171 180 190 182 173 143 132 134 125 90 124 117 112 88 68 53 43 27 14 0 12 2 6 7 3 2 4 5 3 10 23 38
234 207 194 193 204 201 174 188 191 200 220 225 157 182 174 207 97 70 112 136 161 159 165 171 161 160 143 135 141 145 134 130 80 129 123 120 92 52 39 27 8 19 12 1 6 7 3 3 4 6 4 10 17 48
213 203 178 178 158 195 221 214 221 217 230 230 192 102 88 104 120 129 137 149 154 159 157 147 134 137 135 139 141 153 160 125 114 122 136 128 147 357 9 16 12 9 4 6 7 3 357 20 10 11 13 2 6 97
180 174 175 185 198 218 201 206 161 120 79 81 110 111 100 108 117 127 139 149 156 157 154 153 158 162 160 156 144 122 96 100 109 113 124 108 332 336 9 14 6 4 2 6 7 5 356 14 12 13 8 10 7 92
158 177 219 192 213 208 169 136 116 112 115 107 120 130 123 124 113 102 130 147 156 158 158 164 171 170 172 171 167 162 140 111 89 107 114 81 31 358 16 16 356 359 3 3 1 2 0 4 8 7 7 5 5 17
165 186 197 180 161 152 137 132 132 125 117 122 128 130 140 128 104 124 44 80 182 180 181 179 179 171 171 152 133 129 136 138 130 116 141 152 319 6 35 3 354 2 3 360 358 358 356 351 356 355 356 357 358 2
179 179 164 165 147 163 145 127 140 142 127 103 80 95 81 105 105 110 92 69 69 188 183 172 160 154 146 141 138 138 176 211 215 29 4 346 345 347 8 340 354 1 6 354 352 347 339 342 346 346 345 342 342 342
Wind_Speed_850mb
48 43 43 43 40 40 40 40 43 46 46 47 47 39 31 33 32 27 21 25 26 15 42 46 35 26 28 32 18 33 20 14 16 6 7 7 10 9 12 15 12 4 6 4 5 8 11 20 14 15 26 51 59 59
47 45 47 47 45 44 44 42 40 40 38 40 44 40 32 24 30 28 30 26 22 28 30 44 52 52 48 55 36 23 21 18 11 8 8 10 16 11 18 9 14 7 2 5 9 12 35 47 43 44 58 59 60 67
47 47 47 47 44 43 42 38 37 38 39 35 41 40 34 20 27 30 33 28 22 31 45 30 21 20 18 19 27 20 3 8 8 15 15 7 9 9 10 10 13 19 21 12 17 15 38 59 52 62 62 71 77 76
50 48 45 41 41 41 41 39 39 42 40 34 36 39 34 19 25 31 38 30 22 13 11 9 7 17 19 20 24 27 27 17 14 19 9 7 8 17 13 17 20 10 22 21 30 24 64 27 51 65 71 74 81 60
50 49 46 40 39 39 40 41 41 41 40 33 33 37 30 20 22 29 38 38 30 15 9 25 44 30 38 26 21 21 19 14 8 6 6 7 18 13 16 17 4 14 11 5 7 42 31 54 77 77 80 77 71 82
51 46 42 42 47 43 39 40 39 41 35 30 32 33 21 16 22 28 12 9 16 32 8 8 16 17 23 35 23 25 20 14 7 6 9 13 23 6 8 6 9 23 23 25 16 47 53 61 73 64 75 80 72 71
52 50 49 46 43 39 41 40 38 36 30 26 27 24 20 25 29 31 9 5 11 27 6 11 10 9 30 31 30 23 21 10 10 7 11 18 12 5 3 8 24 33 34 38 34 36 48 51 75 78 71 83 71 71
50 48 44 44 43 45 42 40 35 33 26 24 21 18 17 24 30 39 37 33 20 16 8 6 9 15 25 33 25 16 18 22 16 9 9 9 3 12 8 6 23 31 40 30 38 44 52 64 70 76 80 78 71 66
51 48 46 47 52 48 43 35 33 29 26 25 18 18 18 25 14 19 11 11 22 15 6 7 6 4 17 28 21 33 22 9 11 7 7 5 6 7 10 20 26 29 28 43 53 55 51 60 74 66 75 76 69 66
46 47 50 46 44 39 35 36 29 26 30 31 28 15 9 9 12 13 14 20 14 11 13 10 28 14 14 17 5 5 11 7 6 8 6 6 4 3 9 12 17 26 32 46 47 48 65 69 64 73 80 78 68 70
44 44 43 42 44 36 32 30 31 38 45 33 17 10 14 17 11 9 9 11 14 8 14 16 37 20 14 11 3 9 1 5 4 5 5 6 4 3 14 16 23 24 33 40 41 45 54 68 62 70 80 74 76 66
43 38 40 42 37 33 33 36 46 60 39 37 21 17 17 11 9 7 8 11 10 8 17 21 16 18 3 2 2 7 4 4 6 18 6 3 3 11 19 22 27 31 34 46 49 48 53 66 63 61 73 75 75 63
38 41 37 39 35 30 35 39 61 55 39 34 9 10 10 11 11 11 13 8 8 13 16 18 9 10 8 8 7 5 7 5 7 7 4 5 12 19 23 27 32 35 40 48 57 45 52 64 71 59 66 81 76 67
40 36 36 32 29 34 38 59 64 45 37 9 13 10 10 11 11 12 13 6 14 13 18 16 12 8 6 5 4 5 6 7 5 4 6 9 17 21 24 29 34 41 43 51 59 47 48 61 74 55 66 82 79 68
37 34 34 30 31 34 52 64 54 54 10 11 10 9 15 21 15 11 22 22 13 6 9 4 8 7 4 2 2 5 5 4 4 6 5 13 17 22 26 30 34 42 43 50 54 48 52 64 63 60 57 83 76 66
24 27 32 28 34 52 67 65 45 30 7 6 10 9 11 9 14 17 26 25 13 13 6 9 7 6 5 6 5 5 4 3 3 3 9 11 18 22 26 28 31 36 38 47 47 45 49 57 64 60 53 81 83 76
30 35 32 36 62 72 70 50 29 10 10 9 14 25 19 10 15 23 23 14 17 13 12 7 5 5 4 5 7 4 4 2 9 8 13 13 16 22 25 26 30 32 38 42 44 41 42 49 61 56 49 68 76 79
41 35 46 71 83 75 57 17 10 13 12 21 12 17 24 22 21 21 14 13 10 18 14 2 4 7 6 2 4 7 10 5 2 7 9 12 18 20 22 23 27 28 41 49 44 40 37 47 53 52 50 55 62 77
48 51 64 76 80 41 13 16 10 7 21 12 27 13 27 27 13 11 13 11 11 10 2 4 3 4 3 0 5 13 9 4 6 5 8 10 14 18 21 22 22 28 32 41 47 45 41 40 43 53 56 48 55 75
45 59 76 78 63 11 9 9 14 8 7 13 19 25 32 28 21 13 9 9 13 8 7 5 3 8 4 17 8 7 7 2 4 3 11 12 12 12 15 20 27 27 30 32 33 42 49 44 39 54 62 40 55 71
94 86 85 71 25 9 8 10 12 11 8 10 21 28 23 23 21 18 17 17 14 10 5 6 6 14 13 14 12 8 8 9 11 11 8 14 18 19 19 22 26 29 30 32 37 38 50 47 44 54 62 36 49 63
61 68 51 41 5 6 5 11 8 6 7 8 21 23 14 21 20 20 17 13 16 10 3 9 15 17 16 13 11 11 11 10 9 11 11 8 17 20 22 24 25 30 30 34 38 36 43 48 44 46 57 43 44 53
68 50 17 7 5 9 7 12 7 7 6 7 18 9 11 17 14 20 9 18 12 10 13 15 19 18 19 17 15 14 11 8 9 10 11 12 13 17 20 23 25 29 32 33 36 38 41 50 43 41 47 48 45 45
47 13 9 13 12 8 9 9 7 8 7 7 10 8 12 9 19 11 9 15 21 20 21 23 26 24 19 18 15 13 9 7 5 8 11 12 13 15 17 20 21 26 30 30 35 37 39 45 51 42 38 39 49 43
10 9 8 6 10 10 10 9 8 8 8 13 11 8 7 12 7 7 12 14 25 27 28 26 26 23 21 19 16 9 6 5 4 7 9 11 11 11 14 16 19 26 29 32 36 37 40 42 45 49 34 37 48 36
7 11 12 15 9 10 10 9 12 15 9 12 10 9 8 7 8 7 8 17 27 30 32 28 26 23 22 21 16 12 7 3 3 6 7 9 10 12 14 16 19 23 28 29 32 35 39 40 41 44 42 27 38 44
6 9 12 14 11 11 7 9 11 8 9 11 8 10 7 7 11 2 7 15 20 23 24 25 23 20 16 22 19 11 6 4 8 8 7 8 10 13 15 17 19 24 20 26 30 31 35 39 38 39 41 30 23 30
9 10 9 16 10 11 5 6 7 11 7 7 13 11 15 6 5 5 8 6 11 19 21 18 14 17 19 18 14 11 6 3 3 8 9 9 9 13 17 15 18 28 25 25 29 27 33 33 34 33 36 38 15 19
10 11 12 11 8 6 9 8 6 8 8 9 8 5 6 7 10 10 12 16 18 23 25 23 20 19 20 19 14 8 11 12 8 11 7 12 5 12 18 17 18 19 20 22 26 29 38 32 34 29 30 32 31 7
11 12 8 12 6 9 6 7 3 2 10 16 18 25 25 17 13 13 16 19 21 22 23 24 20 20 21 19 16 11 10 10 11 10 7 1 6 11 12 15 17 18 19 22 23 23 29 28 25 24 27 27 29 11
14 14 6 10 7 8 5 9 8 7 6 10 12 22 22 23 20 14 13 14 17 22 23 19 20 19 18 17 13 13 12 9 10 12 14 9 6 11 13 15 15 17 19 21 21 22 27 26 26 26 27 28 28 19
16 16 10 8 6 9 10 7 7 6 9 22 25 25 25 19 9 8 5 5 15 18 18 20 22 19 16 17 14 15 25 18 11 5 7 5 0 4 9 10 13 16 18 17 18 20 23 27 28 28 28 27 25 20
11 14 7 8 9 12 10 9 5 6 7 5 6 10 12 8 7 4 3 6 7 9 17 14 18 21 21 22 20 17 13 7 1 0 2 3 4 3 5 9 11 15 16 15 17 20 25 30 32 32 31 30 27 21
Wind_Direction_850mb
294 293 292 293 297 300 299 295 291 286 285 284 289 295 286 285 290 294 297 263 259 250 277 276 271 262 279 276 278 322 321 13 284 314 299 331 319 338 317 312 323 179 291 255 220 247 270 25 353 6 314 326 326 317
294 286 287 288 290 292 293 295 291 289 290 282 281 290 288 267 280 286 288 309 254 245 259 277 278 275 268 249 280 293 299 305 346 324 348 330 309 306 311 297 332 12 18 271 290 310 315 358 351 340 334 320 320 317
287 293 294 292 289 290 290 291 291 293 290 281 276 282 286 259 271 277 283 301 260 273 297 270 269 307 287 255 213 256 64 351 352 343 321 305 286 330 300 311 335 323 335 305 323 328 332 337 336 336 329 319 314 312
283 284 290 286 289 290 291 288 284 284 281 276 275 275 281 251 266 271 274 292 247 271 279 291 315 266 259 221 222 229 257 289 312 311 298 273 284 299 301 304 298 350 310 340 301 314 334 318 326 321 316 313 310 307
280 278 280 278 285 289 291 290 287 288 282 269 272 272 277 255 260 271 267 279 263 226 297 293 298 257 238 216 219 227 237 252 262 278 260 260 278 305 283 269 21 16 17 331 281 311 302 297 310 314 312 313 317 316
272 280 271 278 279 286 280 282 286 285 277 264 266 270 270 232 263 257 289 321 244 205 286 293 295 281 196 213 218 214 216 214 197 230 278 274 278 336 299 294 101 8 344 328 298 300 299 299 303 310 310 326 313 316
265 268 270 274 286 292 295 289 282 277 270 255 260 262 255 229 249 228 233 253 194 210 262 284 272 271 205 202 222 219 204 187 205 205 238 252 285 333 278 286 353 343 334 323 316 323 313 315 311 319 316 324 319 315
262 264 265 270 277 285 291 288 275 271 253 243 244 246 224 247 252 240 260 279 197 191 239 269 277 256 203 216 234 194 184 183 202 229 241 262 247 212 243 307 330 338 332 326 325 320 307 307 316 322 326 326 325 325
256 258 261 267 277 285 282 284 273 264 230 217 209 184 202 214 226 257 269 205 185 215 259 244 267 303 194 229 244 193 190 197 157 209 226 182 256 225 13 343 330 339 330 314 321 324 322 323 320 325 330 335 330 328
253 256 258 273 282 284 274 270 257 224 206 186 173 172 203 214 198 166 145 182 206 221 232 248 251 262 271 289 264 266 203 190 213 205 154 229 230 100 6 339 333 331 331 331 329 327 326 323 330 336 337 334 333 339
253 257 260 270 278 272 271 262 224 197 179 170 172 182 190 155 157 193 194 194 191 228 220 242 235 255 283 283 270 274 243 236 254 146 230 241 118 354 347 349 341 349 338 336 330 326 326 329 335 334 344 343 345 345
256 259 265 270 269 265 259 233 212 194 184 174 159 156 149 182 208 228 217 182 196 241 191 226 216 220 122 264 252 286 268 249 246 156 219 208 90 353 346 341 335 342 341 337 342 336 332 333 336 338 343 350 353 355
253 256 261 261 257 256 244 227 203 195 172 151 152 156 179 176 213 221 205 200 216 216 186 178 180 189 167 218 213 240 252 237 186 204 183 79 42 353 347 343 337 338 343 336 342 342 335 337 340 344 345 358 357 358
248 251 260 252 250 246 217 204 191 180 145 142 160 183 221 186 230 215 218 228 268 245 163 181 167 204 123 199 237 254 291 284 264 254 79 67 11 344 348 345 342 340 344 340 344 344 340 339 339 342 352 352 2 1
248 243 252 246 240 213 201 188 186 170 139 168 194 219 214 237 253 218 232 254 231 199 158 187 158 141 99 298 270 316 291 253 351 6 4 355 345 349 348 345 343 339 344 342 347 344 344 342 343 352 354 356 4 6
236 243 235 227 204 193 179 176 174 162 155 196 226 248 231 237 239 254 237 231 167 210 191 251 187 162 156 165 221 238 250 250 68 307 344 355 355 346 345 344 340 340 344 342 347 344 344 346 343 352 354 357 4 10
223 215 213 191 185 176 176 168 158 171 201 225 232 228 236 221 209 216 211 214 169 216 219 218 219 136 170 215 178 150 239 320 260 321 42 17 349 346 345 343 345 346 346 350 350 351 348 352 355 353 0 1 1 8
207 206 183 179 174 170 167 150 151 187 231 231 248 216 207 235 255 229 186 145 182 224 234 251 112 207 188 282 122 171 194 198 207 24 30 9 351 349 350 343 345 347 347 359 3 357 354 355 347 347 357 360 0 6
206 185 181 183 177 145 138 175 178 234 228 247 221 218 200 230 240 222 175 149 237 326 28 205 245 289 128 283 83 117 155 60 14 46 82 21 3 360 355 348 349 350 350 350 3 4 357 353 345 354 359 4 7 6
177 176 179 178 167 120 131 156 185 259 238 224 219 217 217 219 209 176 170 189 199 192 203 224 283 145 114 100 94 72 71 319 336 28 43 9 2 350 6 7 357 352 350 354 358 2 10 3 2 4 354 3 12 9
163 161 171 171 139 116 155 166 199 233 230 213 205 203 211 207 193 184 180 188 199 221 189 190 154 95 95 111 113 100 88 66 79 54 34 21 15 18 18 17 10 7 5 1 359 358 6 5 355 8 357 16 13 10
150 163 158 158 100 147 189 206 228 231 232 253 194 193 198 201 200 195 163 191 221 190 194 162 137 148 145 131 117 103 113 94 87 66 30 21 22 20 17 16 13 13 9 4 6 1 359 8 359 6 3 17 13 10
159 162 132 122 151 196 246 197 210 214 233 211 184 206 208 200 194 165 184 207 201 185 181 155 150 154 142 138 124 114 112 87 87 60 40 30 29 21 19 20 20 17 9 3 6 5 359 10 12 9 11 16 19 15
153 122 162 183 199 199 177 194 217 224 226 209 195 212 191 142 169 215 230 192 158 164 166 154 157 150 150 153 150 129 110 92 100 77 35 23 22 24 21 21 20 19 16 5 4 6 5 5 10 14 13 14 15 20
129 175 180 196 204 184 196 180 199 213 214 200 202 187 147 162 179 233 230 165 158 171 167 174 175 170 167 169 151 151 126 87 102 72 39 27 23 23 25 25 27 20 16 8 9 6 7 9 6 9 15 13 11 22
183 184 194 196 189 198 200 175 201 202 198 194 207 147 140 164 202 229 219 185 171 176 169 180 184 180 182 168 165 155 132 113 122 113 64 43 42 36 25 19 9 359 12 7 6 7 4 5 9 5 4 14 24 22
192 200 202 211 202 217 199 182 175 194 206 205 172 162 147 167 205 126 100 106 154 163 171 180 190 182 173 143 132 134 125 90 124 117 112 88 68 53 43 27 14 0 12 2 6 7 3 2 4 5 3 10 23 38
234 207 194 193 204 201 174 188 191 200 220 225 157 182 174 207 97 70 112 136 161 159 165 171 161 160 143 135 141 145 134 130 80 129 123 120 92 52 39 27 8 19 12 1 6 7 3 3 4 6 4 10 17 48
213 203 178 178 158 195 221 214 221 217 230 230 192 102 88 104 120 129 137 149 154 159 157 147 134 137 135 139 141 153 160 125 114 122 136 128 147 357 9 16 12 9 4 6 7 3 357 20 10 11 13 2 6 97
180 174 175 185 198 218 201 206 161 120 79 81 110 111 100 108 117 127 139 149 156 157 154 153 158 162 160 156 144 122 96 100 109 113 124 108 332 336 9 14 6 4 2 6 7 5 356 14 12 13 8 10 7 92
158 177 219 192 213 208 169 136 116 112 115 107 120 130 123 124 113 102 130 147 156 158 158 164 171 170 172 171 167 162 140 111 89 107 114 81 31 358 16 16 356 359 3 3 1 2 0 4 8 7 7 5 5 17
165 186 197 180 161 152 137 132 132 125 117 122 128 130 140 128 104 124 44 80 182 180 181 179 179 171 171 152 133 129 136 138 130 116 141 152 319 6 35 3 354 2 3 360 358 358 356 351 356 355 356 357 358 2
179 179 164 165 147 163 145 127 140 142 127 103 80 95 81 105 105 110 92 69 69 188 183 172 160 154 146 141 138 138 176 211 215 29 4 346 345 347 8 340 354 1 6 354 352 347 339 342 346 346 345 342 342 342